TimeCDT,TemperatureF,Dew PointF,Humidity,Sea Level PressureIn,VisibilityMPH,Wind Direction,Wind SpeedMPH,Gust SpeedMPH,PrecipitationIn,Events,Conditions,WindDirDegrees,DateUTC
12:53 AM,64.9,62.1,90,30.03,9.0,South,3.5,-,N/A,,Clear,190,2013-03-31 05:53:00
1:51 AM,64.4,62.6,94,30.00,7.0,South,3.5,-,N/A,,Partly Cloudy,190,2013-03-31 06:51:00
1:53 AM,64.0,62.1,93,30.03,7.0,South,3.5,-,N/A,,Partly Cloudy,180,2013-03-31 06:53:00
2:53 AM,64.0,62.1,93,30.02,3.0,South,3.5,-,N/A,,Scattered Clouds,190,2013-03-31 07:53:00
3:00 AM,64.4,62.6,94,29.99,2.5,Calm,Calm,-,N/A,,Mostly Cloudy,0,2013-03-31 08:00:00
3:05 AM,64.4,62.6,94,29.99,3.0,Calm,Calm,-,N/A,,Mostly Cloudy,0,2013-03-31 08:05:00
3:53 AM,64.9,63.0,93,30.00,4.0,South,3.5,-,N/A,,Overcast,180,2013-03-31 08:53:00
4:14 AM,64.4,62.6,94,29.97,3.0,South,3.5,-,N/A,,Overcast,180,2013-03-31 09:14:00
4:21 AM,64.4,62.6,94,29.97,2.0,South,3.5,-,N/A,,Overcast,190,2013-03-31 09:21:00
4:40 AM,64.4,62.6,94,29.97,1.2,South,3.5,-,N/A,,Overcast,180,2013-03-31 09:40:00
4:51 AM,64.4,62.6,94,29.97,0.5,Calm,Calm,-,N/A,Fog,Fog,0,2013-03-31 09:51:00
4:53 AM,64.0,63.0,96,29.99,0.5,Calm,Calm,-,N/A,Fog,Fog,0,2013-03-31 09:53:00
5:12 AM,64.4,62.6,94,29.97,2.0,Calm,Calm,-,N/A,,Overcast,0,2013-03-31 10:12:00
5:22 AM,64.4,62.6,94,29.97,4.0,SSW,3.5,-,N/A,,Overcast,200,2013-03-31 10:22:00
5:30 AM,64.4,62.6,94,29.97,4.0,South,4.6,-,N/A,,Overcast,190,2013-03-31 10:30:00
5:53 AM,64.9,63.0,93,29.99,3.0,SSW,4.6,-,N/A,,Overcast,200,2013-03-31 10:53:00
6:05 AM,64.4,64.4,100,29.98,2.5,SSW,3.5,-,N/A,,Overcast,200,2013-03-31 11:05:00
6:36 AM,66.2,64.4,94,29.97,3.0,South,5.8,-,N/A,,Overcast,180,2013-03-31 11:36:00
6:44 AM,66.2,64.4,94,29.97,1.8,South,4.6,-,N/A,,Overcast,190,2013-03-31 11:44:00
6:53 AM,66.0,64.0,93,30.00,1.5,SSW,5.8,-,N/A,,Overcast,200,2013-03-31 11:53:00
7:19 AM,66.2,64.4,94,29.98,0.8,SSW,6.9,-,N/A,,Overcast,200,2013-03-31 12:19:00
7:53 AM,66.0,64.9,96,30.01,0.5,South,5.8,-,N/A,Fog,Fog,190,2013-03-31 12:53:00
8:26 AM,66.2,64.4,94,29.99,2.0,SSW,5.8,-,N/A,,Overcast,200,2013-03-31 13:26:00
8:37 AM,66.2,64.4,94,29.99,4.0,SSW,4.6,-,N/A,,Overcast,200,2013-03-31 13:37:00
8:53 AM,66.9,66.0,97,30.01,5.0,Variable,4.6,-,N/A,,Overcast,0,2013-03-31 13:53:00
9:53 AM,68.0,66.0,93,29.99,8.0,SSW,9.2,-,N/A,,Overcast,210,2013-03-31 14:53:00
10:27 AM,71.6,66.2,83,29.97,10.0,SSW,9.2,17.3,N/A,,Overcast,210,2013-03-31 15:27:00
10:34 AM,71.6,66.2,83,29.97,10.0,SSW,10.4,-,N/A,,Overcast,210,2013-03-31 15:34:00
10:53 AM,72.0,66.0,81,30.00,10.0,SSW,8.1,-,N/A,,Overcast,210,2013-03-31 15:53:00
11:09 AM,71.6,66.2,83,29.98,10.0,SSW,9.2,-,N/A,,Overcast,210,2013-03-31 16:09:00
11:53 AM,75.0,66.0,73,29.99,10.0,SSW,10.4,-,N/A,,Overcast,210,2013-03-31 16:53:00
12:05 PM,75.2,66.2,73,29.97,10.0,SSW,12.7,17.3,N/A,,Overcast,210,2013-03-31 17:05:00
12:53 PM,75.0,66.0,73,30.00,10.0,SSW,15.0,20.7,N/A,,Overcast,200,2013-03-31 17:53:00
1:53 PM,75.9,66.9,74,29.99,10.0,SSW,11.5,17.3,N/A,,Overcast,200,2013-03-31 18:53:00
2:00 PM,75.2,66.2,73,29.96,10.0,SW,11.5,-,N/A,,Overcast,220,2013-03-31 19:00:00
2:22 PM,75.2,66.2,73,29.95,10.0,SSW,11.5,-,N/A,,Overcast,210,2013-03-31 19:22:00
2:53 PM,77.0,66.9,71,29.97,10.0,SSW,13.8,19.6,N/A,,Mostly Cloudy,210,2013-03-31 19:53:00
3:07 PM,66.2,55.4,68,29.98,10.0,North,31.1,42.6,0.00,Rain-Thunderstorm,Light Rain,350,2013-03-31 20:07:00
3:13 PM,62.6,57.2,82,30.00,1.0,North,27.6,43.7,0.00,Rain-Thunderstorm,Heavy Rain,10,2013-03-31 20:13:00
3:18 PM,60.8,57.2,88,29.99,0.5,NNE,26.5,43.7,0.21,Fog-Rain-Thunderstorm,Heavy Thunderstorms and Rain,30,2013-03-31 20:18:00
3:25 PM,60.8,57.2,88,30.00,1.0,NE,25.3,35.7,0.39,Rain-Thunderstorm,Heavy Thunderstorms and Rain,50,2013-03-31 20:25:00
3:32 PM,60.8,57.2,88,29.99,1.8,NE,21.9,32.2,0.46,Rain-Thunderstorm,Heavy Rain,40,2013-03-31 20:32:00
3:34 PM,60.8,57.2,88,30.00,2.5,NE,19.6,32.2,0.47,Rain-Thunderstorm,Heavy Rain,50,2013-03-31 20:34:00
3:36 PM,60.8,57.2,88,30.00,3.0,NE,20.7,31.1,0.48,Rain-Thunderstorm,Rain,50,2013-03-31 20:36:00
3:44 PM,60.8,57.2,88,29.99,7.0,ENE,19.6,-,0.49,Rain,Light Rain,60,2013-03-31 20:44:00
3:53 PM,61.0,57.0,87,30.01,8.0,ENE,18.4,-,0.49,Rain,Light Rain,60,2013-03-31 20:53:00
4:53 PM,61.0,57.0,87,30.01,6.0,ENE,10.4,-,0.07,Rain,Heavy Rain,70,2013-03-31 21:53:00
5:01 PM,60.8,57.2,88,29.99,6.0,ENE,8.1,-,0.03,Rain-Thunderstorm,Thunderstorms and Rain,70,2013-03-31 22:01:00
5:22 PM,60.8,57.2,88,29.98,4.0,ENE,10.4,-,0.10,Rain-Thunderstorm,Heavy Rain,60,2013-03-31 22:22:00
5:49 PM,60.8,57.2,88,29.93,5.0,SSE,15.0,-,0.21,Rain-Thunderstorm,Heavy Thunderstorms and Rain,150,2013-03-31 22:49:00
5:53 PM,60.1,57.9,93,29.97,4.0,SSE,13.8,-,0.22,Rain,Heavy Rain,150,2013-03-31 22:53:00
6:03 PM,60.8,57.2,88,29.93,4.0,SSE,18.4,21.9,0.04,Rain-Thunderstorm,Thunderstorms and Rain,150,2013-03-31 23:03:00
6:18 PM,62.6,57.2,82,29.92,6.0,SSE,12.7,-,0.08,Rain,Rain,160,2013-03-31 23:18:00
6:36 PM,62.6,59.0,88,29.92,10.0,South,5.8,-,0.09,Rain-Thunderstorm,Light Rain,190,2013-03-31 23:36:00
6:51 PM,62.6,59.0,88,29.91,9.0,South,9.2,-,0.11,Rain,Light Rain,180,2013-03-31 23:51:00
6:53 PM,63.0,59.0,87,29.93,10.0,South,10.4,-,0.11,Rain,Light Rain,180,2013-03-31 23:53:00
7:53 PM,64.9,60.1,84,29.91,10.0,SW,8.1,25.3,0.01,,Scattered Clouds,220,2013-04-01 00:53:00
8:53 PM,64.9,60.1,84,29.91,10.0,SSW,6.9,16.1,N/A,,Clear,200,2013-04-01 01:53:00
9:53 PM,62.1,59.0,90,29.95,10.0,North,8.1,-,N/A,,Clear,360,2013-04-01 02:53:00
10:53 PM,60.1,57.9,93,29.97,10.0,North,8.1,-,N/A,,Clear,360,2013-04-01 03:53:00
11:53 PM,59.0,57.0,93,30.00,10.0,NW,4.6,-,N/A,,Clear,320,2013-04-01 04:53:00